Погода в Хювинкяа

Финляндия     60°38′03″N   24°50′58″E
темп.,
°C
ветер,
м/с
пор.,
м/с
влажн.,
%
обл.,
%
осадки,
мм/ч
давл.,
гПа
погр.,
м
16 апреля, пт
пт1600:00+1св27760 0.0 1032123
03:000св27785 0.0 1032129
06:00−1св39805 0.0 1032173
09:00+4всв49625 0.0 1032516
12:00+9всв574229 0.0 10321037
15:00+11всв57356 0.0 10311261
18:00+11всв474051 0.0 10311136
21:00+6всв41157100 0.0 1031444
17 апреля, сб
сб1700:00+4всв3117422 0.0 1032331
03:00+3св3118649 0.0 1032280
06:00+1св3108630 0.0 1032236
09:00+6всв4106346 0.0 1032433
12:00+11всв47425 0.0 1032922
15:00+13всв463520 0.0 10311212
18:00+13всв35395 0.0 10311195
21:00+7всв29625 0.0 1032178
18 апреля, вс
вс1800:00+4всв29745 0.0 1032178
03:00+3всв28825 0.0 1032143
06:00+2св28865 0.0 1032149
09:00+6всв38604 0.0 1032396
12:00+11в45440 0.0 10311024
15:00+13всв45360 0.0 10311461
18:00+13всв35391 0.0 10301555
21:00+7всв23655 0.0 103163
19 апреля, пн
пн1900:00+5всв227611 0.0 103148
03:00+3всв268217 0.0 1031111
06:00+2всв25916 0.0 103199
09:00+7в36715 0.0 1030364
12:00+12в35515 0.0 10291274
15:00+13вюв353956 0.0 10281745
18:00+13вюв35395 0.0 10271802
21:00+7юв24665 0.0 102788
20 апреля, вт
вт2000:00+4всв25770 0.0 102697
03:00+3всв25815 0.0 1024102
06:00+2всв258712 0.0 1023109
09:00+7в376739 0.0 1021363
12:00+10в465164 0.0 10201468
15:00+10в3656100 0.0 10171356
18:00+9всв3759100 0.0 1015778
21:00+7св31065100 0.0 1014441